Find Starlink 35004

NORAD ID: 65428 Int'l Des: 2025-192 Owner: SPXS Country: US Constellation: starlink operational
LEOCIRCULAR

リアルタイム位置

3D地球を読み込み中...

Starlink 35004について

説明を読み込み中...

次回通過

Passes for default location (London). Set your location on the main map for personalized predictions.

高度履歴

Loading altitude history...

軌道要素

1 65428U 25192AA 26107.24330023 .00008625 00000-0 30300-3 0 9997
2 65428 53.1604 53.4979 0001275 94.7586 265.3561 15.30200063 35283
Epoch: Apr 17, 2026 • Age: 13 hours

現在のステータス

高度 476.6 km
速度 7.63 km/s
衛星直下点 31.49°N, 46.05°W
打ち上げ日 Aug 31, 2025
運用期間 0.6 years
タイプ internet

技術仕様

分類 Payload
質量 575.00 kg
乾燥質量 530.00 kg
総質量 575.00 kg
長さ 0.30 m
直径 4.10 m
スパン 29.00 m
形状 Box + pan
製造者 SPXS
バスタイプ Starlink V2MO
フェーズステータス In Orbit
所有者/国 SPXS/US

Most Searched